• Join FlightAware (Why Join?)
  • Login
  • US Flag 
08:39AM EDT


 

Airport Tracker/Info


-or-


 

Live Flight TrackerFlight Track Log ✈ N1089D ✈ 03-Jul-2013 ✈ KFRG - KHWV

Flight Track Log - Related Links

Times and Time Zones

All times are in EDT time to prevent confusion due to time zone crossing. See the N1089D flight status page for this flight to view local times or setup timezone preferences in your user account.

Time Position Orientation Groundspeed Altitude Reporting Facility
EDT Latitude Longitude Course Direction KTS MPH feet Rate Location/Type
03:55PM 40.7000 -73.4333 57° Northeast 67 77 1,800  Level New York TRACON
03:56PM 40.6833 -73.4167 143° Southeast 85 98 2,400 600 Climbing New York TRACON
03:57PM 40.6833 -73.3833 90° East 91 105 3,000 180 Climbing New York TRACON
03:59PM 40.6952 -73.3715 37° Northeast  Level FlightAware Approximate
04:00PM 40.6667 -73.3000 37° Northeast 109 125 3,000  Level New York TRACON
04:01PM 40.7433 -73.2968 57° Northeast  Level FlightAware Approximate
04:01PM 40.6500 -73.2667 123° Southeast 105 121 3,000  Level New York TRACON
04:02PM 40.6500 -73.2167 90° East 103 119 3,000 -240 Level New York TRACON
04:03PM 40.6667 -73.1833 57° Northeast 118 136 2,600 -480 Descending New York TRACON
04:04PM 40.6667 -73.1500 90° East 115 132 2,100 -300 Descending New York TRACON
04:05PM 40.6833 -73.1000 66° East 116 133 2,000 -60 Descending New York TRACON
04:06PM 40.7000 -73.0667 57° Northeast 119 137 2,000  Level New York TRACON
04:07PM 40.7000 -73.0167 90° East 120 138 2,100  Climbing New York TRACON
04:08PM 40.7167 -72.9833 57° Northeast 123 142 2,100 -240 Level New York TRACON
04:09PM 40.7333 -72.9500 57° Northeast 132 152 1,700 -360 Descending New York TRACON
04:10PM 40.7667 -72.9167 37° Northeast 130 150 1,400 -480 Descending New York TRACON
04:11PM 40.8000 -72.9000 21° North 103 119 800 -300 Descending New York TRACON
04:12PM 40.8167 -72.8833 37° Northeast 101 116 800 120 Level New York TRACON
04:13PM 40.8333 -72.8500 57° Northeast 104 120 1,100 420 Climbing New York TRACON
04:14PM 40.8167 -72.8667 217° Southwest 79 91 1,700 420 Climbing New York TRACON
04:15PM 40.8167 -72.8833 270° West 91 105 2,000 420 Climbing New York TRACON
04:16PM 40.8000 -72.8500 123° Southeast 95 109 2,600 540 Climbing New York TRACON
04:17PM 40.7833 -72.8333 143° Southeast 87 100 3,100 240 Climbing New York TRACON
04:18PM 40.7667 -72.8500 217° Southwest 83 96 3,100 -60 Level New York TRACON
04:19PM 40.7500 -72.8667 217° Southwest 81 93 3,000  Descending New York TRACON
04:20PM 40.7333 -72.9000 237° Southwest 83 96 3,100  Climbing New York TRACON
04:21PM 40.7167 -72.9167 217° Southwest 85 98 3,100 -60 Level New York TRACON
04:21PM 40.7167 -72.9500 270° West 85 98 3,000 -480 Descending New York TRACON
04:22PM 40.7167 -72.9833 270° West 92 106 2,200 -540 Descending New York TRACON
04:23PM 40.7333 -72.9833 360° North 119 137 2,000 -300 Descending New York TRACON
04:24PM 40.7667 -72.9500 37° Northeast 128 147 1,700 -540 Descending New York TRACON
04:25PM 40.7833 -72.9167 57° Northeast 112 129 1,000 -600 Descending New York TRACON
04:26PM 40.8167 -72.8833 37° Northeast 101 116 500 -60 Descending New York TRACON
04:27PM 40.8333 -72.8667 37° Northeast 108 124 900 540 Climbing New York TRACON
04:28PM 40.8167 -72.8500 143° Southeast 86 99 1,600 600 Climbing New York TRACON
04:29PM 40.8167 -72.8667 270° West 79 91 2,100 540 Climbing New York TRACON
04:30PM 40.8167 -72.9000 270° West 79 91 2,700 480 Climbing New York TRACON
04:31PM 40.8333 -72.9333 303° West 85 98 3,100 360 Climbing New York TRACON